AST,Max TemperatureF,Mean TemperatureF,Min TemperatureF,Max Dew PointF,MeanDew PointF,Min DewpointF,Max Humidity, Mean Humidity, Min Humidity, Max Sea Level PressureIn, Mean Sea Level PressureIn, Min Sea Level PressureIn, Max VisibilityMiles, Mean VisibilityMiles, Min VisibilityMiles, Max Wind SpeedMPH, Mean Wind SpeedMPH, Max Gust SpeedMPH,PrecipitationIn, CloudCover, Events, WindDirDegrees
2012-12-1,27,22,17,16,13,9,86,70,39,30.71,30.60,30.43,15,14,10,15,11,23,0.00,4,Snow,273
2012-12-2,41,25,9,37,23,7,93,75,49,30.69,30.45,30.14,15,14,4,23,11,30,0.08,6,Rain-Snow,174
2012-12-3,48,42,37,48,44,36,100,97,92,30.19,30.00,29.91,15,10,1,24,16,34,0.08,8,Rain,224
2012-12-4,37,35,33,36,33,30,100,89,81,30.34,30.26,30.13,15,15,12,15,7,21,0.00,8,,261
2012-12-5,48,42,36,48,40,32,100,91,77,30.11,29.83,29.65,15,14,2,24,15,32,0.08,8,Rain,202
2012-12-6,32,30,28,32,25,21,100,80,61,30.17,29.94,29.74,15,12,1,21,14,33,0.03,8,Snow,309
2012-12-7,31,28,24,28,24,21,93,81,64,30.24,30.19,30.12,15,15,15,12,8,20,0.00,6,,250
2012-12-8,42,34,28,43,36,27,100,95,80,30.11,30.05,29.85,15,10,1,9,7,,0.12,8,Rain,161
2012-12-9,46,37,26,46,33,16,100,80,49,30.26,29.97,29.75,15,12,1,23,11,33,0.04,5,Rain,263
2012-12-10,42,32,23,43,28,16,100,90,56,30.30,30.01,29.55,15,6,0,21,8,29,0.91,7,Fog-Rain-Snow,129
2012-12-11,53,40,28,54,36,21,100,87,64,29.96,29.61,29.37,15,12,0,16,12,23,0.28,7,Fog-Rain,265
2012-12-12,28,24,20,21,16,14,86,74,48,30.28,30.16,29.97,15,15,15,12,8,18,0.00,3,,282
2012-12-13,29,22,16,19,18,16,93,79,56,30.38,30.32,30.28,15,15,15,12,7,23,0.00,3,,270
2012-12-14,38,30,23,34,28,19,100,86,68,30.25,30.01,29.84,15,14,5,14,7,21,0.08,7,Rain-Snow,215
2012-12-15,32,24,15,30,18,9,93,80,59,30.17,30.04,29.84,15,5,0,21,15,37,0.08,7,Snow,308
2012-12-16,26,20,14,27,16,10,100,85,66,30.25,30.22,30.15,15,8,1,15,12,23,0.03,7,Rain-Snow,282
2012-12-17,35,28,22,34,31,27,100,96,84,30.30,30.26,30.22,15,8,0,13,6,,0.03,7,Rain-Snow,39
2012-12-18,35,32,29,32,31,30,93,87,78,30.22,30.06,29.87,15,14,10,17,10,26,0.00,8,Rain,87
2012-12-19,35,34,33,30,29,27,87,80,70,29.89,29.79,29.71,15,15,12,21,18,30,0.02,8,Snow,60
2012-12-20,35,32,28,31,29,21,100,87,60,30.18,30.08,29.89,15,14,6,17,11,21,0.02,8,Snow,12
2012-12-21,37,32,28,34,29,25,99,90,80,30.16,30.02,29.73,15,15,15,18,6,31,0.08,8,Rain-Snow,89
2012-12-22,49,42,34,50,43,34,100,99,87,29.73,29.41,29.29,15,7,0,28,15,45,0.47,7,Fog-Rain,150
2012-12-23,39,29,19,39,28,12,100,88,68,29.57,29.41,29.36,15,12,1,22,13,32,0.08,7,Rain-Snow,215
2012-12-24,20,18,17,12,9,5,74,64,44,29.83,29.71,29.57,15,15,14,28,19,37,0.00,1,Snow,252
2012-12-25,21,18,14,18,11,9,86,74,61,30.07,29.95,29.83,15,15,12,23,13,34,0.00,3,Snow,261
2012-12-26,28,22,15,23,21,14,100,87,74,30.32,30.20,30.06,15,13,8,14,8,22,0.00,7,Snow,291
2012-12-27,32,24,15,30,25,18,100,90,68,30.31,30.01,29.60,15,9,0,26,10,39,0.24,8,Snow,56
2012-12-28,37,32,28,37,34,28,100,98,93,29.57,29.38,29.30,15,5,0,21,12,36,0.16,8,Fog-Rain-Snow,355
2012-12-29,28,26,23,28,23,19,100,89,77,29.89,29.78,29.58,15,12,3,17,13,30,0.00,8,Snow,273
2012-12-30,33,28,22,33,30,21,100,95,86,29.74,28.98,28.67,15,4,0,32,18,51,0.47,8,Rain-Snow,12
2012-12-31,28,22,17,28,17,12,93,78,58,29.51,29.28,28.96,15,12,2,28,22,46,0.00,5,Snow,286